Weather Roundup
Issued by NWS

Home | Current Version | Previous Version | Graphics & Text | Print | Product List | Glossary Off
Versions: 1 2 3 4 5 6 7 8 9 10 11 12 13 14 15 16 17 18 19 20 21 22 23 24 25 26 27 28 29 30 31 32 33 34 35 36 37 38 39 40 41 42 43 44 45 46 47 48 49 50

000
NZUS93 KARX 191210
HRRWXR

CURRENT HOURLY OBSERVATIONS ACROSS
MUCH OF THE UPPER MISSISSIPPI VALLEY
NATIONAL WEATHER SERVICE LA CROSSE WI
600 AM CST FRI DEC 19 2014


...SOUTHEAST MINNESOTA...


CITY           SKY/WX    TMP DP  RH WIND       PRES   REMARKS
ROCHESTER      CLOUDY    22  18  85 SE6       30.24S WCI  14
ROCHESTER/MAYO CLOUDY    24  18  78 CALM      30.25R
WINONA         CLOUDY    25  19  80 SE3       30.29S
AUSTIN         CLOUDY    23  19  86 S3        30.24S
ALBERT LEA     CLOUDY    25  21  86 CALM      30.23R
DODGE CENTER   CLOUDY    23  21  93 S7        30.23R WCI  15
PRESTON        CLOUDY    22  18  85 S5        30.25S WCI  16
OWATONNA       CLOUDY    25  19  80 SE7       30.23S WCI  17
FARIBAULT      CLOUDY    25  21  86 SE5       30.24S WCI  19
$$

...ELSEWHERE IN MINNESOTA...


CITY           SKY/WX    TMP DP  RH WIND       PRES   REMARKS
MINNEAPOLIS    CLOUDY    22  17  81 SE6       30.25S WCI  14
INTNL FALLS    CLOUDY    21  17  84 VRB3      30.17S
DULUTH         CLOUDY    20  17  88 SW7       30.19F WCI  11
RED WING       CLOUDY    23  18  80 SE5       30.26F WCI  17
REDWOOD FALLS  CLOUDY    26  24  92 SE8       30.19S WCI  18
MANKATO        CLOUDY    25  19  80 S7        30.22S WCI  17
WORTHINGTON    CLOUDY    27  27 100 S8        30.17S WCI  18
FAIRMONT       CLOUDY    27  21  80 S7        30.21R WCI  19
$$

...SOUTHWEST WISCONSIN...


CITY           SKY/WX    TMP DP  RH WIND       PRES   REMARKS
LA CROSSE      CLOUDY    25  17  72 CALM      30.29S
PRAIRIE DU CHI CLOUDY    26  19  75 CALM      30.30R
BOSCOBEL       CLOUDY    26  18  71 CALM      30.30S
LONE ROCK      CLOUDY    28  18  66 CALM      30.30S
PLATTEVILLE    CLOUDY    24  20  84 CALM      30.28S
FORT MC COY    CLOUDY    24  19  83 CALM      30.29S
CAMP DOUGLAS   CLOUDY    24  24  99 VRB1      30.28R
VIROQUA        CLOUDY    23  19  87 CALM      30.25S
WIS DELLS      CLOUDY    24  20  85 W6        30.27S WCI  17
$$

...ELSEWHERE IN WISCONSIN...


CITY           SKY/WX    TMP DP  RH WIND       PRES   REMARKS
MILWAUKEE      MOCLDY    27  18  69 NW6       30.29R WCI  20
MADISON        CLOUDY    26  20  77 W3        30.27S
GREEN BAY      CLEAR     18  14  84 CALM      30.29R
EAU CLAIRE     CLOUDY    23  18  81 SW6       30.27R WCI  16
BLACK RVR FLS  CLOUDY    24  19  82 CALM      30.28R
MEDFORD        CLOUDY    21  19  90 CALM      30.23R
WAUSAU         MOCLDY    15  11  83 CALM      30.24S
WIS RAPIDS     CLOUDY    23  19  85 CALM      30.28S
MARSHFIELD     CLOUDY    24  19  81 SW8       30.25R WCI  15
RICE LAKE      CLOUDY    23  20  89 SW3       30.26S
$$

...NORTHEAST IOWA...


CITY           SKY/WX    TMP DP  RH WIND       PRES   REMARKS
DECORAH        CLOUDY    23  19  86 CALM      30.25S
MASON CITY     CLOUDY    24  21  88 SE6       30.25S WCI  17
CHARLES CITY   CLOUDY    23  21  93 SE5       30.26S WCI  17
OELWEIN        CLOUDY    23  21  93 CALM      30.26S
$$

...ELSEWHERE IN IOWA...


CITY           SKY/WX    TMP DP  RH WIND       PRES   REMARKS
DES MOINES     LGT SNOW  29  25  85 SE5       30.25F FOG     WCI  24
IOWA CITY      CLEAR     22  19  89 CALM      30.31R
FORT DODGE     CLOUDY    27  23  86 S3        30.24R
$$

...NORTHERN ILLINOIS...


CITY           SKY/WX    TMP DP  RH WIND       PRES   REMARKS
CHICAGO-OHARE  CLOUDY    28  22  78 N6        30.27R WCI  22
CHICAGO-MIDWAY CLOUDY    30  24  78 NW5       30.27S WCI  25
MOLINE         CLEAR     17  13  84 CALM      30.30R
ROCKFORD       CLOUDY    27  20  75 NE3       30.30S
PEORIA         CLEAR     19  14  81 CALM      30.31R HAZE
$$

NOTE: "FAIR" INDICATES FEW OR NO CLOUDS BELOW 12,000 FEET WITH NO
SIGNIFICANT WEATHER AND/OR OBSTRUCTIONS TO VISIBILITY. WIND
SPEEDS ARE IN MILES-PER-HOUR.



USA.gov is the U.S. government's official web portal to all federal, state and local government web resources and services.